Time,TemperatureF,DewpointF,PressureIn,WindDirection,WindDirectionDegrees,WindSpeedMPH,WindSpeedGustMPH,Humidity,HourlyPrecipIn,Conditions,Clouds,dailyrainin,SoftwareType,DateUTC
2015-03-31 00:01:00,56.4,56.0,30.60,ESE,112,0.0,0.0,97,0.00,,,0.00,Rainwise IP-100,2015-03-31 04:01:00,
2015-03-31 00:06:00,56.5,56.0,30.61,ESE,112,0.0,0.0,97,0.00,,,0.00,Rainwise IP-100,2015-03-31 04:06:00,
2015-03-31 00:11:00,56.9,56.0,30.61,ESE,112,0.0,0.0,97,0.00,,,0.00,Rainwise IP-100,2015-03-31 04:11:00,
2015-03-31 00:16:00,56.9,56.0,30.61,ESE,112,0.0,0.0,97,0.00,,,0.00,Rainwise IP-100,2015-03-31 04:16:00,
2015-03-31 00:21:00,56.8,56.0,30.61,ESE,112,0.0,0.0,97,0.00,,,0.00,Rainwise IP-100,2015-03-31 04:21:00,
2015-03-31 00:26:00,56.5,56.0,30.62,ESE,112,0.0,0.0,97,0.00,,,0.00,Rainwise IP-100,2015-03-31 04:26:00,
2015-03-31 00:31:00,56.4,56.0,30.62,ESE,112,0.0,0.0,97,0.00,,,0.00,Rainwise IP-100,2015-03-31 04:31:00,
2015-03-31 00:36:00,56.2,55.0,30.63,ESE,112,0.0,0.0,97,0.00,,,0.00,Rainwise IP-100,2015-03-31 04:36:00,
2015-03-31 00:41:00,56.2,55.0,30.63,ESE,112,0.0,0.0,97,0.00,,,0.00,Rainwise IP-100,2015-03-31 04:41:00,
2015-03-31 00:46:00,56.3,55.0,30.64,ESE,112,0.0,0.0,97,0.00,,,0.00,Rainwise IP-100,2015-03-31 04:46:00,
2015-03-31 00:51:00,56.7,56.0,30.64,ESE,112,0.0,0.0,97,0.00,,,0.00,Rainwise IP-100,2015-03-31 04:51:00,
2015-03-31 00:56:00,56.7,56.0,30.65,ESE,112,0.0,0.0,97,0.00,,,0.00,Rainwise IP-100,2015-03-31 04:56:00,
2015-03-31 01:01:00,56.6,56.0,30.65,ESE,112,0.0,0.0,97,0.00,,,0.00,Rainwise IP-100,2015-03-31 05:01:00,
2015-03-31 01:06:00,56.2,55.0,30.67,ESE,112,0.0,0.0,97,0.00,,,0.00,Rainwise IP-100,2015-03-31 05:06:00,
2015-03-31 01:11:00,55.9,55.0,30.67,ESE,112,0.0,0.0,97,0.00,,,0.00,Rainwise IP-100,2015-03-31 05:11:00,
2015-03-31 01:16:00,55.6,55.0,30.69,ESE,112,0.0,0.0,97,0.00,,,0.00,Rainwise IP-100,2015-03-31 05:16:00,
2015-03-31 01:21:00,55.4,54.0,30.70,ESE,112,0.0,0.0,97,0.00,,,0.00,Rainwise IP-100,2015-03-31 05:21:00,
2015-03-31 01:26:00,55.3,54.0,30.71,ESE,112,0.0,0.0,97,0.00,,,0.00,Rainwise IP-100,2015-03-31 05:26:00,
2015-03-31 01:31:00,55.2,54.0,30.73,ESE,112,0.0,0.0,97,0.00,,,0.00,Rainwise IP-100,2015-03-31 05:31:00,
2015-03-31 01:36:00,55.1,54.0,30.75,ESE,112,0.0,0.0,97,0.00,,,0.00,Rainwise IP-100,2015-03-31 05:36:00,
2015-03-31 01:41:00,55.1,54.0,30.77,ESE,112,0.0,0.0,97,0.00,,,0.00,Rainwise IP-100,2015-03-31 05:41:00,
2015-03-31 01:46:00,55.1,54.0,30.79,ESE,112,0.0,0.0,97,0.00,,,0.00,Rainwise IP-100,2015-03-31 05:46:00,
2015-03-31 01:51:00,55.1,54.0,30.82,ESE,112,0.0,0.0,97,0.00,,,0.00,Rainwise IP-100,2015-03-31 05:51:00,
2015-03-31 01:56:00,55.1,54.0,30.86,ESE,112,0.0,0.0,97,0.00,,,0.00,Rainwise IP-100,2015-03-31 05:56:00,
2015-03-31 02:01:00,54.9,54.0,30.92,ESE,112,0.0,0.0,97,0.00,,,0.00,Rainwise IP-100,2015-03-31 06:01:00,
2015-03-31 02:06:00,55.1,54.0,31.02,ESE,112,0.0,0.0,97,0.00,,,0.00,Rainwise IP-100,2015-03-31 06:06:00,
2015-03-31 02:11:00,54.9,54.0,31.32,ESE,112,0.0,0.0,97,0.00,,,0.00,Rainwise IP-100,2015-03-31 06:11:00,
2015-03-31 02:16:00,54.9,54.0,32.12,ESE,112,0.0,0.0,97,0.00,,,0.00,Rainwise IP-100,2015-03-31 06:16:00,
2015-03-31 02:21:00,55.1,54.0,32.67,ESE,112,0.0,0.0,97,0.00,,,0.00,Rainwise IP-100,2015-03-31 06:21:00,
2015-03-31 02:26:00,55.5,55.0,32.79,ESE,112,0.0,0.0,97,0.00,,,0.00,Rainwise IP-100,2015-03-31 06:26:00,
2015-03-31 02:31:00,55.6,55.0,32.79,ESE,112,0.0,0.0,97,0.00,,,0.00,Rainwise IP-100,2015-03-31 06:31:00,
2015-03-31 02:36:00,55.6,55.0,32.79,ESE,112,0.0,0.0,97,0.00,,,0.00,Rainwise IP-100,2015-03-31 06:36:00,
2015-03-31 02:41:00,55.4,54.0,32.79,ESE,112,0.0,0.0,97,0.00,,,0.00,Rainwise IP-100,2015-03-31 06:41:00,
2015-03-31 02:46:00,55.2,54.0,32.79,ESE,112,0.0,0.0,97,0.00,,,0.00,Rainwise IP-100,2015-03-31 06:46:00,
2015-03-31 02:51:00,55.4,54.0,32.79,ESE,112,0.0,0.0,97,0.00,,,0.00,Rainwise IP-100,2015-03-31 06:51:00,
2015-03-31 02:56:00,55.5,55.0,32.79,ESE,112,0.0,0.0,97,0.00,,,0.00,Rainwise IP-100,2015-03-31 06:56:00,
2015-03-31 03:01:00,55.3,54.0,32.79,ESE,112,0.0,0.0,97,0.00,,,0.00,Rainwise IP-100,2015-03-31 07:01:00,
2015-03-31 03:06:00,54.9,54.0,32.79,ESE,112,0.0,0.0,97,0.00,,,0.00,Rainwise IP-100,2015-03-31 07:06:00,
2015-03-31 03:11:00,54.5,54.0,32.79,ESE,112,0.0,0.0,97,0.00,,,0.00,Rainwise IP-100,2015-03-31 07:11:00,
2015-03-31 03:16:00,54.6,54.0,32.79,ESE,112,0.0,0.0,97,0.00,,,0.00,Rainwise IP-100,2015-03-31 07:16:00,
2015-03-31 03:21:00,54.9,54.0,32.79,ESE,112,0.0,0.0,97,0.00,,,0.00,Rainwise IP-100,2015-03-31 07:21:00,
2015-03-31 03:26:00,55.1,54.0,32.79,ESE,112,0.0,0.0,97,0.00,,,0.00,Rainwise IP-100,2015-03-31 07:26:00,
2015-03-31 03:31:00,54.9,54.0,32.79,ESE,112,0.0,0.0,97,0.00,,,0.00,Rainwise IP-100,2015-03-31 07:31:00,
2015-03-31 03:36:00,54.7,54.0,32.79,ESE,112,0.0,0.0,97,0.00,,,0.00,Rainwise IP-100,2015-03-31 07:36:00,
2015-03-31 03:41:00,54.5,54.0,32.79,ESE,112,0.0,0.0,97,0.00,,,0.00,Rainwise IP-100,2015-03-31 07:41:00,